This demonstration page uses our WeatherBlox Daily Observations layout. Learn more.

Left ArrowRight Arrow

53.62937, 11.41316

Hourly Observations for March 17, 2018

Temp ( °F °C ) Dew Point ( °F °C ) Humidity (%) Winds ( mph kmh ) Pressure ( in mb ) Visibility ( mi km ) Precip ( " mm )
6:50 am 06:50 Partly Cloudy 25 -4 14 -10 63 63 E 16 26 30.03 1017 30 48 N/A
7:20 am 07:20 Partly Cloudy 25 -4 12 -11 59 59 E 21 33 30.06 1018 30 48 N/A
7:50 am 07:50 Partly Cloudy 25 -4 12 -11 59 59 E 20 31 30.06 1018 30 48 N/A
8:20 am 08:20 Partly Cloudy 25 -4 12 -11 59 59 E 20 31 30.06 1018 30 48 N/A
8:50 am 08:50 Mostly Cloudy 27 -3 12 -11 54 54 E 18 30 30.06 1018 30 48 N/A
9:20 am 09:20 Partly Cloudy 27 -3 14 -10 59 59 E 20 31 30.06 1018 30 48 N/A
9:50 am 09:50 Partly Cloudy 27 -3 12 -11 54 54 E 21 33 30.06 1018 30 48 N/A
10:20 am 10:20 Partly Cloudy 28 -2 12 -11 51 51 E 20 31 30.06 1018 30 48 N/A
10:50 am 10:50 Partly Cloudy 28 -2 12 -11 51 51 E 20 31 30.06 1018 30 48 N/A
11:20 am 11:20 Partly Cloudy 30 -1 14 -10 51 51 E 20 31 30.03 1017 30 48 N/A
11:50 am 11:50 Partly Cloudy 30 -1 18 -8 59 59 ENE 24 39 30.03 1017 30 48 N/A
12:20 pm 12:20 Partly Cloudy 30 -1 14 -10 51 51 ENE 26 43 30.03 1017 30 48 N/A
12:50 pm 12:50 Partly Cloudy 32 0 18 -8 55 55 ENE 29 46 30.03 1017 30 48 N/A
1:20 pm 13:20 Partly Cloudy 32 0 18 -8 55 55 ENE 26 43 30.03 1017 30 48 N/A
1:50 pm 13:50 Partly Cloudy 32 0 12 -11 44 44 ENE 28 44 30.00 1016 30 48 N/A
2:20 pm 14:20 Partly Cloudy 30 -1 14 -10 51 51 ENE 30 48 30.03 1017 30 48 N/A
2:50 pm 14:50 Mostly Cloudy 30 -1 14 -10 51 51 ENE 26 43 30.03 1017 30 48 N/A
3:20 pm 15:20 Mostly Cloudy 30 -1 12 -11 47 47 ENE 28 44 30.03 1017 30 48 N/A
3:50 pm 15:50 Mostly Cloudy 30 -1 10 -12 43 43 E 21 33 30.03 1017 30 48 N/A
4:20 pm 16:20 Mostly Cloudy 30 -1 12 -11 47 47 E 23 37 30.03 1017 30 48 N/A
4:50 pm 16:50 Mostly Cloudy 28 -2 12 -11 51 51 ENE 25 41 30.03 1017 30 48 N/A
5:20 pm 17:20 Mostly Cloudy 28 -2 12 -11 51 51 ENE 25 41 30.03 1017 30 48 N/A
5:50 pm 17:50 Partly Cloudy 28 -2 10 -12 47 47 ENE 24 39 30.03 1017 30 48 N/A
6:20 pm 18:20 Mostly Sunny 27 -3 12 -11 54 54 ENE 25 41 30.06 1018 7 11 N/A
6:50 pm 18:50 Mostly Clear 27 -3 12 -11 54 54 ENE 23 37 30.06 1018 7 11 N/A
7:20 pm 19:20 Mostly Clear 27 -3 12 -11 54 54 ENE 23 37 30.06 1018 7 11 N/A

Powered by AerisWeather